TimeCST,TemperatureF,Dew PointF,Humidity,Sea Level PressureIn,VisibilityMPH,Wind Direction,Wind SpeedMPH,Gust SpeedMPH,PrecipitationIn,Events,Conditions,WindDirDegrees,DateUTC
12:15 AM,32.0,30.2,93,29.97,10.0,East,16.1,25.3,N/A,,Overcast,90,2013-02-21 06:15:00
12:35 AM,32.0,30.2,93,29.96,10.0,East,17.3,20.7,N/A,,Overcast,90,2013-02-21 06:35:00
12:55 AM,33.8,30.2,87,29.94,10.0,East,13.8,24.2,N/A,,Overcast,90,2013-02-21 06:55:00
1:15 AM,33.8,30.2,87,29.94,10.0,East,18.4,25.3,N/A,,Overcast,100,2013-02-21 07:15:00
1:35 AM,33.8,30.2,87,29.93,10.0,East,18.4,25.3,N/A,,Overcast,90,2013-02-21 07:35:00
1:55 AM,33.8,30.2,87,29.93,10.0,East,20.7,26.5,N/A,,Overcast,90,2013-02-21 07:55:00
2:15 AM,33.8,30.2,87,29.92,10.0,East,19.6,27.6,N/A,,Overcast,100,2013-02-21 08:15:00
2:35 AM,33.8,30.2,87,29.89,10.0,East,20.7,26.5,N/A,,Mostly Cloudy,90,2013-02-21 08:35:00
2:55 AM,33.8,30.2,87,29.89,10.0,East,19.6,28.8,N/A,,Mostly Cloudy,90,2013-02-21 08:55:00
3:15 AM,33.8,30.2,87,29.90,7.0,East,19.6,26.5,0.01,,Mostly Cloudy,90,2013-02-21 09:15:00
3:35 AM,33.8,30.2,87,29.88,10.0,East,18.4,25.3,0.01,,Mostly Cloudy,100,2013-02-21 09:35:00
3:55 AM,33.8,30.2,87,29.89,7.0,East,17.3,21.9,0.02,,Mostly Cloudy,90,2013-02-21 09:55:00
4:15 AM,32.0,30.2,93,29.88,10.0,East,17.3,26.5,N/A,,Overcast,100,2013-02-21 10:15:00
4:35 AM,32.0,30.2,93,29.86,10.0,East,20.7,25.3,N/A,,Overcast,90,2013-02-21 10:35:00
4:55 AM,32.0,30.2,93,29.85,10.0,East,17.3,27.6,N/A,,Mostly Cloudy,100,2013-02-21 10:55:00
5:15 AM,32.0,30.2,93,29.84,7.0,East,17.3,21.9,N/A,,Mostly Cloudy,90,2013-02-21 11:15:00
5:35 AM,33.8,30.2,87,29.82,10.0,East,24.2,31.1,N/A,,Mostly Cloudy,100,2013-02-21 11:35:00
5:55 AM,33.8,30.2,87,29.82,10.0,East,17.3,26.5,N/A,,Mostly Cloudy,100,2013-02-21 11:55:00
6:15 AM,33.8,30.2,87,29.81,10.0,East,21.9,26.5,N/A,,Mostly Cloudy,100,2013-02-21 12:15:00
6:35 AM,33.8,32.0,93,29.79,10.0,East,18.4,27.6,N/A,,Overcast,100,2013-02-21 12:35:00
7:15 AM,33.8,32.0,93,29.78,5.0,ESE,16.1,24.2,0.01,,Mostly Cloudy,110,2013-02-21 13:15:00
7:35 AM,33.8,32.0,93,29.76,3.0,East,18.4,23.0,0.06,,Overcast,100,2013-02-21 13:35:00
7:55 AM,33.8,32.0,93,29.75,4.0,East,20.7,24.2,0.09,,Overcast,100,2013-02-21 13:55:00
8:15 AM,33.8,32.0,93,29.73,1.8,East,17.3,27.6,0.07,,Overcast,90,2013-02-21 14:15:00
8:35 AM,33.8,32.0,93,29.76,7.0,ESE,12.7,23.0,0.07,,Overcast,120,2013-02-21 14:35:00
8:55 AM,33.8,32.0,93,29.76,5.0,East,12.7,-,0.07,,Overcast,100,2013-02-21 14:55:00
9:15 AM,33.8,32.0,93,29.77,5.0,East,12.7,-,N/A,,Overcast,100,2013-02-21 15:15:00
9:35 AM,33.8,32.0,93,29.75,5.0,East,11.5,16.1,0.01,,Overcast,90,2013-02-21 15:35:00
9:55 AM,33.8,32.0,93,29.77,5.0,East,10.4,-,0.01,,Overcast,90,2013-02-21 15:55:00
10:15 AM,33.8,32.0,93,29.75,4.0,East,12.7,17.3,N/A,,Overcast,90,2013-02-21 16:15:00
10:35 AM,33.8,32.0,93,29.78,4.0,NE,5.8,11.5,0.03,,Overcast,50,2013-02-21 16:35:00
10:55 AM,33.8,32.0,93,29.80,2.5,Calm,Calm,-,0.03,,Overcast,0,2013-02-21 16:55:00
11:15 AM,35.6,33.8,93,29.80,2.0,North,6.9,-,N/A,,Overcast,350,2013-02-21 17:15:00
11:35 AM,35.6,33.8,93,29.78,2.5,North,6.9,-,0.01,,Overcast,10,2013-02-21 17:35:00
11:55 AM,35.6,33.8,93,29.78,2.5,North,6.9,-,0.01,,Overcast,10,2013-02-21 17:55:00
12:15 PM,35.6,33.8,93,29.77,3.0,North,6.9,-,N/A,,Overcast,10,2013-02-21 18:15:00
12:35 PM,35.6,33.8,93,29.76,5.0,NE,6.9,-,N/A,,Overcast,40,2013-02-21 18:35:00
12:55 PM,35.6,35.6,100,29.74,3.0,ENE,9.2,-,N/A,,Overcast,70,2013-02-21 18:55:00
1:15 PM,37.4,35.6,93,29.72,5.0,ENE,9.2,-,N/A,,Overcast,60,2013-02-21 19:15:00
1:35 PM,37.4,35.6,93,29.69,7.0,ENE,6.9,-,N/A,,Overcast,60,2013-02-21 19:35:00
1:55 PM,39.2,37.4,93,29.69,10.0,ENE,8.1,-,N/A,,Overcast,70,2013-02-21 19:55:00
2:15 PM,39.2,37.4,93,29.70,10.0,NE,4.6,-,N/A,,Overcast,50,2013-02-21 20:15:00
2:35 PM,41.0,37.4,87,29.69,10.0,East,6.9,-,N/A,,Overcast,90,2013-02-21 20:35:00
2:55 PM,41.0,37.4,87,29.71,10.0,East,5.8,-,N/A,,Overcast,100,2013-02-21 20:55:00
3:15 PM,41.0,37.4,87,29.73,10.0,Calm,Calm,-,N/A,,Overcast,0,2013-02-21 21:15:00
3:35 PM,41.0,37.4,87,29.72,10.0,ENE,4.6,-,N/A,,Overcast,70,2013-02-21 21:35:00
3:55 PM,41.0,37.4,87,29.74,10.0,NE,4.6,-,N/A,,Overcast,50,2013-02-21 21:55:00
4:35 PM,41.0,37.4,87,29.76,10.0,Calm,Calm,-,N/A,,Overcast,0,2013-02-21 22:35:00
4:55 PM,42.8,39.2,87,29.77,10.0,ENE,3.5,-,N/A,,Overcast,70,2013-02-21 22:55:00
5:15 PM,42.8,37.4,81,29.76,10.0,ENE,5.8,-,N/A,,Overcast,60,2013-02-21 23:15:00
5:35 PM,41.0,37.4,87,29.77,10.0,ENE,4.6,-,N/A,,Overcast,60,2013-02-21 23:35:00
5:55 PM,41.0,37.4,87,29.78,10.0,East,4.6,-,N/A,,Overcast,80,2013-02-21 23:55:00
6:15 PM,41.0,37.4,87,29.78,10.0,ENE,3.5,-,N/A,,Overcast,70,2013-02-22 00:15:00
6:35 PM,41.0,37.4,87,29.79,10.0,East,3.5,-,N/A,,Overcast,100,2013-02-22 00:35:00
6:55 PM,39.2,35.6,87,29.80,7.0,SE,3.5,-,N/A,,Mostly Cloudy,130,2013-02-22 00:55:00
7:15 PM,37.4,35.6,93,29.82,7.0,Calm,Calm,-,N/A,,Mostly Cloudy,0,2013-02-22 01:15:00
7:35 PM,39.2,37.4,93,29.82,5.0,ENE,4.6,-,N/A,,Overcast,70,2013-02-22 01:35:00
7:55 PM,39.2,37.4,93,29.83,4.0,ESE,3.5,-,N/A,,Overcast,110,2013-02-22 01:55:00
8:15 PM,39.2,37.4,93,29.84,4.0,ESE,5.8,-,N/A,,Overcast,120,2013-02-22 02:15:00
8:35 PM,39.2,37.4,93,29.85,4.0,East,4.6,-,N/A,,Overcast,80,2013-02-22 02:35:00
9:15 PM,39.2,37.4,93,29.87,3.0,East,3.5,-,N/A,,Overcast,100,2013-02-22 03:15:00
9:35 PM,39.2,37.4,93,29.88,0.8,ENE,3.5,-,N/A,,Overcast,70,2013-02-22 03:35:00
9:55 PM,39.2,37.4,93,29.89,0.5,NE,3.5,-,N/A,,Overcast,40,2013-02-22 03:55:00
10:15 PM,37.4,37.4,100,29.91,0.5,Calm,Calm,-,N/A,,Overcast,0,2013-02-22 04:15:00
10:35 PM,37.4,37.4,100,29.92,0.2,Calm,Calm,-,N/A,,Overcast,0,2013-02-22 04:35:00
10:55 PM,37.4,37.4,100,29.93,0.2,Calm,Calm,-,N/A,,Overcast,0,2013-02-22 04:55:00
11:15 PM,37.4,35.6,93,29.93,0.2,NW,4.6,-,N/A,,Overcast,320,2013-02-22 05:15:00
11:35 PM,37.4,35.6,93,29.94,0.2,Calm,Calm,-,N/A,,Overcast,0,2013-02-22 05:35:00
11:55 PM,37.4,35.6,93,29.95,0.2,WNW,3.5,-,N/A,,Overcast,290,2013-02-22 05:55:00